Regional Weather Roundup
Issued by NWS Charleston, SC

Home | Current Version | Previous Version | Text Only | Print | Product List | Glossary On
Versions: 1 2 3 4 5 6 7 8 9 10 11 12 13 14 15 16 17 18 19 20 21 22 23 24 25 26 27 28 29 30 31 32 33 34 35 36 37 38 39 40 41 42 43 44 45 46 47 48 49 50
000
ASUS42 KCHS 272125
RWRCHS

REGIONAL WEATHER ROUNDUP
NATIONAL WEATHER SERVICE CHARLESTON SC
500 PM EDT WED AUG 27 2014

NOTE: "FAIR" INDICATES FEW OR NO CLOUDS BELOW 12,000 FEET WITH NO
SIGNIFICANT WEATHER AND/OR OBSTRUCTIONS TO VISIBILITY.

NOT ALL STATIONS ARE QUALITY CONTROLLED BY THE NATIONAL
WEATHER SERVICE. USE DATA WITH CAUTION...ESPECIALLY
DEWPOINT OBSERVATIONS.

SCZ027-030-031-034>040-042>050-272200-
...SOUTH CAROLINA...

CITY           SKY/WX    TMP DP  RH WIND       PRES   REMARKS
N CHARLESTON   MOSUNNY   89  59  36 NW5       29.97S
WATERFRONT PRK   N/A     86 N/A N/A N6G12       N/A
FORT JOHNSON   NOT AVBL
MOUNT PLEASANT FAIR      88  64  45 NW5       29.96S
JOHNS ISLAND   CLEAR     90  64  43 NW6       29.97S HX  91
PINOPOLIS        N/A    N/A N/A N/A W2        29.90F
MONCKS CORNER    N/A     86  63  45 NW3       29.98S
SUMMERVILLE    FAIR      88  59  37 N3        29.98S
BEAUFORT MCAS  MOSUNNY   89  62  40 N9        29.97F
BEAUFORT ARPT  FAIR      86  64  48 NW7       29.97S
HILTON HEAD IS SUNNY     86  63  45 N3        29.98F
GEORGETOWN     NOT AVBL
WALTERBORO     CLEAR     90  50  25 N7        29.98S
ORANGEBURG     SUNNY     90  53  28 NE6       29.97F
BARNWELL       FAIR      91  52  25 N10       29.98S
AIKEN          FAIR      91  55  29 NE6       30.03S
MANNING        FAIR      90  55  31 N5        29.97S
KINGSTREE      NOT AVBL
COLUMBIA       MOSUNNY   93  48  21 NE8       29.97S
SUMTER         SUNNY     90  51  26 N9        29.96F
FLORENCE       SUNNY     91  52  26 N10       29.96F
MYRTLE BEACH   MOSUNNY   88  63  42 N13       29.95S
N MYRTLE BEACH NOT AVBL

$$

GAZ063-065-086>088-099>101-113>116-118-119-134-136>141-150-272200-
...GEORGIA...

CITY           SKY/WX    TMP DP  RH WIND       PRES   REMARKS
SAVANNAH ARPT  SUNNY     90  55  30 VRB7      29.98F
HUNTER AAF     SUNNY     88  58  36 VRB3      29.96F
FORT STEWART   SUNNY     90  57  33 N3        29.96F
STATESBORO     NOT AVBL
SYLVANIA       CLEAR     90  62  39 NW7       29.99S HX  90
CLAXTON        NOT AVBL
THOMSON        SUNNY     92  61  35 NW6       30.04F HX  92
AUGUSTA-BUSH   SUNNY     93  50  23 N8        29.97F HX  90
AUGUSTA-DANIEL SUNNY     94  48  20 VRB3      29.99F HX  90
SWAINSBORO     FAIR      91  57  31 NE6       29.99F HX  90
VIDALIA          N/A     91  59  33 NE3       29.98F HX  90
ALMA           SUNNY     91  54  28 N5        29.97F
WAYCROSS       SUNNY     93  62  35 NE5       29.97S HX  93
JESUP            N/A     93  54  26 NE7       29.97S HX  91
BRUNSWICK      SUNNY     86  63  45 NE9       29.98F
SAINT SIMONS   SUNNY     83  64  52 E13       29.98F

$$

SCZ027-028-034-036>038-045-046-048>050-GAZ119-141-272200-
...LAKE AND SUPPLEMENTAL COASTAL OBSERVATIONS...

STATION/POSITION TIME  TEMP    WIND        PRES    WAVE   SWELL
                       AIR SEA DIR/SP/G            HT/PER HT/PER/DIR
                 (UTC) (F)     (DEG/KT/KT) (MB)    (FT/S) (FT/S/D)
UPR LAKE MARION  NOT AVBL
WINYAH BAY       2100   85     320/  4     1014.0S
LAKE MURRAY      2000   89     360/  4/  8 1014.6F
ACE BASIN NERRS  2100   90     320/  2     1015.0S
FORT PULASKI     2100   83     100/  6/  8 1015.3F
SAPELO ISLAND    2100   84      80/  9     1016.0S

$$

ANZ835-935-AMZ111-154-330-350-352-354-374-450-454-472-272200-
...C-MAN AND BUOY OBSERVATIONS...

STATION/POSITION TIME  TEMP    WIND        PRES    WAVE   SWELL
                       AIR SEA DIR/SP/G            HT/PER HT/PER/DIR
                 (UTC) (F)     (DEG/KT/KT) (MB)    (FT/S) (FT/S/D)
FOLLY BEACH CMAN 2100   81     150/  6/  7 1015.2F
BUOY 41004       2100   81 82   10/ 10/ 12 1014.2S   5/11   5/11
BUOY 41008       2100   80 85   30/  8/ 10 1015.4F   4/ 9   3/100/ 9
5E ST. MARYS GA  2100      84                N/A     4/ 9   2/ 90/11
FRYING PAN BUOY  NOT AVBL
BUOY 41025       2100   77     360/ 23/ 29 1011.5S  11/12   8/120/12
CAPE LOOKOUT NC  2100   80      40/ 15/ 18 1012.9S
BUOY 41002       2023   81 81  340/ 21/ 23 1009.7R  10/10   5/ 60/10
BUOY 41010       2100   83 85  360/  8/ 10 1014.0F   9/11   8/ 50/11
BUOY 41012       NOT AVBL
ST AUGUSTINE FL  2100   80      20/ 13/ 15 1015.9F
CAPERS NEARSHORE 2000   84     160/  4/  6   N/A
FRIPP NEARSHORE  NOT AVBL


$$


USA.gov is the U.S. government's official web portal to all federal, state and local government web resources and services.